User: anonymous
Location: Caltech
(34.1382°N, 118.1253°W)
Time: 08:43:36
(UTC-07:00)
Language:

Meteor 1-11 Rocket - Orbit

View from above orbital plane
View from above orbital plane
View from above satellite
View from above satellite

Ground track
Ground track

The orbit data is extracted from the following two-line orbital elements,

1 05918U 72022B   14245.45165486  .00000098  00000-0  52118-4 0  2464
2 05918 081.2357 231.3079 0057588 309.8002 160.1974 14.05717622174860
Epoch (UTC): 02 September 2014 10:50:22
Eccentricity: 0.0057588
inclination: 81.2357°
perigee height: 832 km
apogee height: 916 km
right ascension of ascending node: 231.3079°
argument of perigee: 309.8002°
revolutions per day: 14.05717622
mean anomaly at epoch: 160.1974°
orbit number at epoch: 17486

The dashed part of the orbit path shows where the satellite is in the earth's shadow,  

DLR